GW3457 Weather Reports


time (UTC)temp
F
wind
direction
speed
knots
gust
knots
rain 1hr
in
rain 24hr
in
rain mn
in
humidity
%
barometer
mb
20260903230055 85 0 0.0 1.7 0.00 0.06 0.05 72 1014.1
20260903224622 86 0 0.0 0.9 0.00 0.06 0.05 71 1013.9
20260903223057 88 0 0.0 0.9 0.00 0.06 0.05 68 1013.9
20260903221552 88 0 0.0 2.6 0.00 0.06 0.05 66 1014.1
20260903214606 91 234 1.7 4.3 0.00 0.06 0.05 58 1013.6
20260903213102 92 212 0.9 5.2 0.01 0.06 0.05 57 1013.6
20260903211555 91 223 2.6 8.7 0.01 0.06 0.05 59 1013.8
20260903210122 91 238 1.7 7.8 0.01 0.06 0.05 58 1013.8
20260903204551 92 262 3.5 7.8 0.00 0.06 0.04 58 1013.8
20260903203111 91 160 0.9 7.8 0.00 0.06 0.04 59 1014.1
20260903201554 90 242 2.6 9.6 0.00 0.06 0.04 61 1014.4
20260903200055 89 83 2.6 7.8 0.00 0.06 0.04 61 1014.5
20260903194550 88 241 4.3 9.6 0.00 0.06 0.04 63 1014.8
20260903193057 87 250 4.3 14.8 0.00 0.06 0.04 63 1015.1
20260903191551 86 229 7.0 14.8 0.00 0.06 0.04 64 1015.4
20260903184601 86 149 4.3 14.8 0.01 0.07 0.04 67 1015.9
20260903183053 85 221 3.5 11.3 0.01 0.07 0.04 67 1016.0
20260903181601 84 212 3.5 9.6 0.01 0.07 0.04 70 1016.1
20260903180056 81 149 1.7 13.9 0.01 0.07 0.04 74 1016.3
20260903174554 80 230 6.1 13.9 0.00 0.06 0.03 74 1016.5
20260903173050 79 316 2.6 10.4 0.00 0.06 0.03 78 1016.7
20260903171559 78 143 2.6 7.0 0.00 0.06 0.03 79 1017.0
20260903170055 76 144 3.5 7.0 0.00 0.06 0.03 82 1017.1
20260903164550 75 236 2.6 7.8 0.00 0.07 0.03 84 1017.3
20260903163052 74 257 2.6 7.8 0.00 0.07 0.03 86 1017.8
20260903161558 74 219 0.9 7.0 0.01 0.07 0.03 88 1018.1
20260903160104 73 256 4.3 8.7 0.01 0.07 0.03 87 1018.5
20260903154605 73 268 2.6 8.7 0.01 0.08 0.03 89 1019.0
20260903153103 73 247 2.6 7.8 0.01 0.08 0.03 88 1019.0
20260903151601 73 234 2.6 7.8 0.00 0.07 0.02 90 1019.1
20260903150049 72 136 0.9 3.5 0.00 0.07 0.02 91 1019.3
20260903144603 71 15 1.7 3.5 0.00 0.08 0.02 93 1019.3
20260903143106 70 21 1.7 7.8 0.00 0.08 0.02 93 1019.2
20260903141601 70 25 3.5 12.2 0.00 0.08 0.02 92 1019.6
20260903140056 70 13 3.5 11.3 0.01 0.08 0.02 92 1020.2
20260903134552 70 28 1.7 8.7 0.01 0.10 0.02 92 1018.1
20260903133058 70 0 3.5 8.7 0.01 0.10 0.02 91 1018.8
20260903131605 71 17 2.6 7.0 0.01 0.10 0.02 91 1018.7
20260903124600 70 17 1.7 6.1 0.00 0.12 0.01 93 1018.3
20260903123053 70 15 3.5 6.1 0.00 0.12 0.01 93 1018.7
20260903121551 69 25 0.9 7.8 0.00 0.12 0.01 93 1018.8
20260903120050 69 34 2.6 7.0 0.01 0.12 0.01 93 1019.0
20260903114604 70 23 0.9 4.3 0.01 0.16 0.01 92 1019.1
20260903113053 71 35 0.9 13.9 0.01 0.16 0.01 89 1019.7
20260903111550 71 46 2.6 4.3 0.01 0.16 0.01 90 1020.1
20260903104557 70 350 0.0 7.0 0.00 0.20 0.00 94 1019.3
20260903103057 69 360 2.6 5.2 0.00 0.20 0.00 94 1019.2
20260903101556 69 34 0.9 7.0 0.00 0.20 0.00 94 1018.7
20260903100104 69 348 4.3 9.6 0.00 0.20 0.00 95 1018.4
20260903094551 69 32 3.5 7.0 0.00 0.33 0.00 94 1018.4
20260903093107 69 348 1.7 4.3 0.00 0.33 0.00 94 1017.7
20260903091549 69 28 0.9 4.3 0.00 0.33 0.00 94 1017.5
20260903090058 69 351 2.6 7.0 0.00 0.33 0.00 94 1017.3
20260903084553 69 48 3.5 8.7 0.00 0.33 0.00 94 1017.4
20260903083053 69 39 1.7 3.5 0.00 0.33 0.00 94 1017.2
20260903081602 69 42 0.9 2.6 0.00 0.33 0.00 94 1016.9
20260903080059 69 0 0.0 0.9 0.00 0.33 0.00 94 1016.7
20260903074552 69 0 0.0 1.7 0.00 0.33 0.00 94 1016.5
20260903073051 69 40 0.0 1.7 0.00 0.33 0.00 94 1016.6
20260903071610 69 0 0.0 1.7 0.00 0.33 0.00 93 1016.6
20260903064551 70 351 0.9 2.6 0.00 0.33 0.00 93 1016.6
20260903063113 70 350 0.9 3.5 0.00 0.33 0.00 93 1017.0
20260903061602 70 54 1.7 3.5 0.00 0.33 0.00 93 1016.5
20260903060110 70 0 0.0 1.7 0.00 0.33 0.00 93 1016.4
20260903054553 70 166 0.9 4.3 0.00 0.33 0.00 93 1016.3
20260903053050 71 218 1.7 3.5 0.00 0.33 0.00 93 1016.3
20260903051600 71 28 0.0 1.7 0.00 0.33 0.00 93 1016.5
20260903050126 71 0 0.0 1.7 0.00 0.33 0.00 92 1016.6
20260903044603 71 14 0.0 1.7 0.00 0.33 0.00 92 1016.7
20260903043059 71 0 0.0 0.0 0.00 0.33 0.00 93 1016.8
20260903041556 72 0 0.0 2.6 0.00 0.33 0.00 92 1016.8
20260903040058 72 10 0.9 4.3 0.00 0.33 0.00 92 1017.3
20260903034547 72 12 2.6 6.1 0.00 0.33 0.33 92 1017.4
20260903033057 72 16 0.0 2.6 0.00 0.33 0.33 92 1017.2
20260903031552 72 39 0.9 2.6 0.00 0.33 0.33 92 1016.7
20260903030050 73 0 0.0 0.9 0.00 0.33 0.33 91 1016.7
20260903024548 73 0 0.0 1.7 0.00 0.33 0.33 91 1017.1
20260903023054 73 34 0.0 0.9 0.00 0.33 0.33 91 1016.9
20260903021552 73 0 0.0 0.0 0.00 0.33 0.33 90 1016.9
20260903020054 73 0 0.0 0.9 0.00 0.33 0.33 90 1017.0
20260903014553 74 36 0.0 1.7 0.00 0.33 0.33 90 1017.0
20260903013050 74 0 0.9 2.6 0.01 0.33 0.33 89 1017.0
20260903011609 74 22 1.7 4.3 0.01 0.33 0.33 89 1016.9
20260903010052 75 0 1.7 5.2 0.01 0.33 0.33 88 1016.9
20260903004601 75 214 1.7 3.5 0.01 0.33 0.33 86 1016.8
20260903003059 77 227 0.0 3.5 0.00 0.32 0.32 84 1017.1
20260903001556 79 218 0.9 2.6 0.00 0.32 0.32 80 1017.3
20260903000051 80 144 0.0 3.5 0.00 0.32 0.32 76 1017.5
20260902234551 81 19 2.6 6.1 0.00 0.32 0.32 70 1017.8
20260902233058 82 0 0.9 6.1 0.00 0.32 0.32 69 1017.9
20260902231603 82 156 3.5 7.8 0.00 0.32 0.32 68 1017.7